STARLINK-11632, 63108

Orbit data source: Space-Track

STARLINK-11632, 63108 is a payload satellite owned by SpaceX/Seattle (US) in LEO that was launched on Thu, 27 Feb 2025 UTC via an FALCON 9 launch vehicle from the Air Force Eastern Test Range (AFETR). Payload-class satellites include a variety of spacecraft equipped with specific instruments for various scientific and technological missions. These include communications satellites like Starlink; space stations such as the ISS; scientific satellites like the Hubble; Earth observation satellites from companies like Planet Labs, Umbra, and HawkEye 360; GPS; miniature CubeSats for education and research; and military/defense satellites.

Loading next visibility...
Identifier
63108, 2025-039E
Orbit
LEO
Country
Flag of USUS
Related business
Manufacturer
SpaceX/Seattle
Mission
Operational Commercial Communications
Bus & Motor
STARLINK V2MD, Unknown motor
Mass
960 kg wet, ~910 kg dry
Launch date (UTC)
2025-02-27 (10 months ago)
Launch vehicle
FALCON 9
Launch site
Air Force Eastern Test Range (AFETR)
Object type
Payload
Rocket body
Debris
Shape & HBR
Box + 2 Pan, 18.1 m
Radar Cross Section
36.964 m², Large (>1 m²)

Expand to show TLE details & history
Last TLE update: 9 hours ago

TLE from 9 hours ago
0 STARLINK-11632
1 63108U 25039E   25351.28433039  .00167649  00000-0  12827-2 0  9990
2 63108  43.0042  13.7027 0002143 261.9991  98.0634 15.70860249 46653
Epoch: 2025-12-17T06:49Z
TLE epoch observation values (Epoch: 2025-12-17T06:49:26.145Z)
Latitude
Longitude
-174.81263°
Altitude
356.412 km
Speed
7.697 km/s
True Right ascension
00h 54m 48s
True Declination
0° 00' 00"
Sunlit
Object was in daylight at epoch
Visualization orbit readout
Latitude
Unknown
Longitude
Unknown
Altitude
Unknown
Speed
Unknown
Apparent Right ascension
Unknown
Apparent Declination
Unknown
Sunlit
N/A
Visualization observer readout
Local Sidereal Time
14:16:55
Azimuth
Unknown
Elevation
Unknown
Doppler factor
Unknown
Orbital elements
Apogee altitude
359.862 km
Perigee altitude
356.974 km
Semi-major axis
6,736.555 km
Eccentricity
0.00021
Inclination
43.0042°
RAAN
13.7027°
Arg. of periapsis
261.9991°
True anomaly
98.08771°
Mean anomaly
98.0634°
Eccentric anomaly
98.07556°
Mean motion
3.92542 °/min
Orbital period
91.71 mins
BSTAR
0.0012827
Loading maneuver chart data...
Computing Atmospheric mass density...
Loading historical data...
Loading historical data...
Loading historical data...
Loading historical data...
Loading historical data...
Loading historical data...
Loading historical data...

Documentation

Showing up to 5 results
|